[[{"header":{"parameterUnit":"m.s-1","parameterCategory":1,"la1":30.2991,"la2":30.254,"lo1":-89.0895,"lo2":-89.0444,"dy":0.0017,"dx":0.0017,"nx":28,"ny":28,"refTime":"2023-09-15T21:00:00:Z","depth":0,"parameterNumber":2,"parameterNumberName":"U-component_of_WINDS"},"data":[0,0,0,0,0,0,0,0,0,0,0,0,0,0,0,0,0,0,0,0,0,0,0,0,0,0,0,0,0,0,0,0,0,0,0,0,0,0,0,0,0,0,0,0,0,0,0,0,0,0,0,0,0,0,0,0,0,0,-0.7281,-0.7281,0,-0.7272,-0.7271,-0.7271,-0.7281,-0.7282,-0.7282,-0.7283,-0.7271,-0.727,-0.7269,0,0,0,0,0,0,0,0,0,0,0,0,0,-0.7305,-0.7305,-0.7281,-0.7281,-0.728,-0.7272,-0.7271,-0.7271,-0.7281,-0.7282,-0.7282,-0.7283,-0.7271,-0.727,-0.7269,0,0,0,0,0,0,0,0,0,0,0,0,0,-0.7295,-0.7305,-0.7281,-0.7284,-0.7285,-0.7272,-0.7271,-0.7271,-0.7281,-0.7282,-0.7282,-0.7283,-0.7271,-0.727,-0.7269,-0.7251,0,0,-0.7266,-0.7265,0,0,0,0,0,0,0,0,-0.7296,-0.7294,-0.7284,-0.7284,-0.7284,-0.7278,-0.7276,-0.7264,-0.7281,-0.7282,-0.7283,-0.7283,-0.7272,-0.7271,-0.7268,-0.725,-0.725,-0.7266,-0.7265,-0.7265,-0.7264,0,0,0,0,0,0,0,-0.7296,-0.7295,-0.7277,-0.7284,-0.7284,-0.7286,-0.7285,-0.7274,-0.7274,-0.7282,-0.7283,-0.7282,-0.7273,-0.7269,-0.7268,-0.725,-0.7266,-0.7265,-0.7264,-0.7264,-0.7217,-0.7216,0,0,0,0,0,0,-0.7297,-0.7295,-0.7277,-0.7277,-0.7292,-0.7285,-0.7284,-0.728,-0.7274,-0.7274,-0.7282,-0.7283,-0.7271,-0.7269,-0.7268,-0.7246,-0.7265,-0.7264,-0.7263,-0.7217,-0.7216,-0.7216,0,0,0,0,0,0,-0.7297,-0.7295,-0.7278,-0.7286,-0.7284,-0.7284,-0.7279,-0.7279,-0.7276,-0.7274,-0.7274,-0.7278,-0.7271,-0.7269,-0.7255,-0.7245,-0.7263,-0.7262,-0.7218,-0.7217,-0.7216,-0.7202,0,0,0,0,0,0,-0.7298,-0.7295,-0.7289,-0.7286,-0.7284,-0.7266,-0.7278,-0.7279,-0.7274,-0.7275,-0.727,-0.727,-0.7271,-0.7257,-0.7254,-0.7244,-0.7262,-0.7219,-0.7218,-0.7216,-0.7203,-0.7201,-0.7198,0,0,0,0,0,-0.7299,-0.7284,-0.7288,-0.7286,-0.7275,-0.7265,-0.7264,-0.7266,-0.7273,-0.7266,-0.7265,-0.727,-0.7247,-0.7255,-0.7252,-0.7242,-0.7219,-0.7218,-0.7217,-0.7204,-0.7201,-0.7199,0,0,0,0,0,0,-0.7285,-0.7284,-0.7288,-0.7273,-0.7269,-0.7267,-0.7258,-0.7263,-0.7256,-0.7257,-0.726,-0.7259,-0.7244,-0.7242,-0.7251,-0.7225,-0.7234,-0.7232,-0.7226,-0.7223,-0.7221,-0.7221,-0.7261,0,0,0,0,0,-0.728,-0.7273,-0.7272,-0.7258,-0.7257,-0.7258,-0.7253,-0.7256,-0.7252,-0.725,-0.7248,-0.7243,-0.7235,-0.7229,-0.7221,-0.7204,-0.7202,-0.7195,-0.7193,-0.7191,-0.7189,-0.7179,-0.7175,-0.7211,-0.7211,-0.7211,0,0,-0.727,-0.7269,-0.7263,-0.7256,-0.7253,-0.7244,-0.7256,-0.7247,-0.724,-0.7248,-0.7235,-0.7233,-0.7228,-0.7212,-0.7205,-0.721,-0.7179,-0.7189,-0.7188,-0.7186,-0.7177,-0.7174,-0.7171,-0.721,-0.721,-0.721,0,0,-0.7246,-0.7245,-0.7233,-0.7231,-0.7228,-0.7229,-0.7226,-0.7224,-0.7223,-0.721,-0.7216,-0.7209,-0.7194,-0.719,-0.7187,-0.7164,-0.7167,-0.7161,-0.7148,-0.7138,-0.7135,-0.7133,-0.7123,-0.712,-0.7159,-0.7159,-0.7159,0,-0.7233,-0.7221,-0.7227,-0.7217,-0.7213,-0.7222,-0.721,-0.7207,-0.7201,-0.7197,-0.7204,-0.7186,-0.7184,-0.7167,-0.7161,-0.7158,-0.7155,-0.7161,-0.7135,-0.7133,-0.7131,-0.7122,-0.7118,-0.7158,-0.7158,-0.7158,-0.7158,0,-0.7205,-0.7197,-0.7188,-0.7183,-0.7179,-0.7168,-0.7171,-0.7165,-0.7169,-0.7169,-0.7156,-0.7154,-0.7145,-0.7142,-0.7145,-0.7126,-0.7129,-0.7135,-0.7145,-0.7126,-0.7118,-0.7115,-0.7157,-0.7157,-0.7158,-0.7158,0,0,-0.7171,-0.717,-0.7166,-0.7164,-0.7162,-0.7155,-0.7145,-0.7138,-0.7133,-0.7129,-0.712,-0.7109,-0.7115,-0.7111,-0.7113,-0.7105,-0.7086,-0.7112,-0.7112,-0.7107,-0.7064,-0.7058,-0.7054,-0.709,-0.7089,-0.7089,-0.7064,0,-0.7146,-0.7129,-0.7134,-0.7116,-0.7108,-0.7117,-0.7108,-0.7106,-0.7106,-0.7099,-0.71,-0.7091,-0.7101,-0.7098,-0.7091,-0.709,-0.7077,-0.7092,-0.708,-0.7079,-0.7079,-0.705,-0.7043,-0.702,-0.7061,-0.706,-0.706,0,-0.7115,-0.7111,-0.7093,-0.7092,-0.7089,-0.7081,-0.7075,-0.7069,-0.7066,-0.7067,-0.7063,-0.7068,-0.7057,-0.7069,-0.7054,-0.7064,-0.7059,-0.7058,-0.7058,-0.7055,-0.7067,-0.7045,-0.7013,-0.7009,-0.7055,-0.7056,-0.7056,0,-0.709,-0.708,-0.7068,-0.7066,-0.7065,-0.7059,-0.7059,-0.7057,-0.7053,-0.7048,-0.7045,-0.7039,-0.7035,-0.703,-0.7033,-0.7041,-0.7017,-0.7028,-0.7016,-0.7016,-0.7009,-0.7009,-0.6974,-0.7009,-0.7009,-0.7009,-0.7009,0,-0.7061,-0.7049,-0.7057,-0.7049,-0.7036,-0.7042,-0.7029,-0.7029,-0.7028,-0.702,-0.7028,-0.702,-0.7025,-0.7018,-0.702,-0.7006,-0.7005,-0.7005,-0.7005,-0.7003,-0.7003,-0.6999,-0.7,-0.7008,-0.7008,-0.7008,-0.7009,0,-0.703,-0.7035,-0.7022,-0.7023,-0.7023,-0.7013,-0.7014,-0.7007,-0.7009,-0.6999,-0.6997,-0.6999,-0.6991,-0.6994,-0.6985,-0.6987,-0.6969,-0.6973,-0.697,-0.697,-0.6957,-0.6958,-0.6917,-0.6911,-0.6952,-0.6951,-0.6951,0,-0.701,-0.7001,-0.7002,-0.6998,-0.6997,-0.699,-0.6987,-0.6993,-0.6988,-0.6986,-0.6978,-0.6971,-0.6965,-0.6952,-0.6952,-0.6946,-0.6948,-0.6934,-0.6947,-0.6945,-0.6946,-0.6946,-0.6944,-0.6931,-0.693,-0.693,-0.693,0,-0.6974,-0.6978,-0.6972,-0.6968,-0.6964,-0.696,-0.6957,-0.6953,-0.696,-0.6954,-0.6947,-0.6942,-0.6934,-0.6926,-0.6921,-0.6919,-0.6925,-0.6926,-0.6923,-0.6919,-0.6918,-0.6917,-0.6962,-0.6926,-0.6927,-0.6927,-0.6927,-0.6927,-0.6947,-0.694,-0.694,-0.6934,-0.6933,-0.693,-0.6923,-0.6926,-0.6919,-0.6914,-0.6918,-0.6909,-0.6907,-0.69,-0.6898,-0.689,-0.6895,-0.6891,-0.6889,-0.6887,-0.6885,-0.6921,-0.6889,-0.689,-0.689,-0.689,-0.689,0,-0.6911,-0.6912,-0.6906,-0.6903,-0.6898,-0.6906,-0.6904,-0.6899,-0.6891,-0.6889,-0.6884,-0.6875,-0.6868,-0.6869,-0.6863,-0.6856,-0.6859,-0.6854,-0.6854,-0.6853,-0.6881,-0.6884,-0.6852,-0.6852,-0.6852,-0.6852,-0.6852,-0.6852,-0.6891,-0.6879,-0.6882,-0.687,-0.6871,-0.6862,-0.686,-0.6858,-0.6857,-0.6847,-0.6841,-0.6843,-0.6842,-0.6836,-0.683,-0.683,-0.6827,-0.6821,-0.6822,-0.6848,-0.6851,-0.6855,-0.6857,-0.682,-0.682,-0.6794,-0.6794,-0.6794]},{"header":{"parameterUnit":"m.s-1","parameterCategory":1,"la1":30.2991,"la2":30.254,"lo1":-89.0895,"lo2":-89.0444,"dy":0.0017,"dx":0.0017,"nx":28,"ny":28,"refTime":"2023-09-15T21:00:00:Z","depth":0,"parameterNumber":3,"parameterNumberName":"V-component_of_WINDS"},"data":[0,0,0,0,0,0,0,0,0,0,0,0,0,0,0,0,0,0,0,0,0,0,0,0,0,0,0,0,0,0,0,0,0,0,0,0,0,0,0,0,0,0,0,0,0,0,0,0,0,0,0,0,0,0,0,0,0,0,0.066,0.0658,0,0.0438,0.0435,0.0433,0.0277,0.0276,0.0275,0.0274,0.0048,0.0043,0.0038,0,0,0,0,0,0,0,0,0,0,0,0,0,0.0951,0.0947,0.0661,0.0658,0.0655,0.0438,0.0435,0.0432,0.0278,0.0276,0.0275,0.0273,0.0049,0.0044,0.0038,0,0,0,0,0,0,0,0,0,0,0,0,0,0.0787,0.0945,0.0661,0.0552,0.054,0.0439,0.0435,0.0431,0.0278,0.0276,0.0274,0.0273,0.0051,0.0044,0.0037,0.0028,0,0,0.0015,0.0011,0,0,0,0,0,0,0,0,0.0796,0.0776,0.0571,0.0559,0.0545,0.0383,0.0455,0.0296,0.0278,0.0377,0.0274,0.0272,0.0161,0.0145,0.0107,0.0017,0.0007,0.0014,0.0009,0.0006,0.0004,0,0,0,0,0,0,0,0.0808,0.0785,0.0572,0.0568,0.0552,0.0514,0.0488,0.0424,0.0282,0.0369,0.0357,0.0333,0.0154,0.0114,0.01,0.0004,0.0014,0.0008,0.0003,0.0,-0.0107,-0.0105,0,0,0,0,0,0,0.0836,0.0795,0.0579,0.0566,0.0669,0.051,0.0481,0.0437,0.0282,0.0257,0.0334,0.0326,0.0128,0.0109,0.0092,0.0069,0.0006,-0.0001,-0.0005,-0.0108,-0.0106,-0.0105,0,0,0,0,0,0,0.0843,0.0818,0.0588,0.0677,0.0645,0.0507,0.0458,0.0434,0.0394,0.0256,0.023,0.032,0.0126,0.0102,0.0044,0.0059,-0.0004,-0.0011,-0.011,-0.0108,-0.0106,0.0026,0,0,0,0,0,0,0.0852,0.0822,0.0817,0.0678,0.0641,0.0545,0.0459,0.0431,0.0382,0.0369,0.0236,0.0212,0.0122,0.0056,0.0037,0.0048,-0.0016,-0.0112,-0.0109,-0.0106,0.002,0.0033,0.0044,0,0,0,0,0,0.0863,0.0864,0.0818,0.0793,0.0632,0.0546,0.0525,0.0421,0.0384,0.0377,0.0289,0.0217,0.0061,0.0051,0.0029,0.0038,-0.0114,-0.011,-0.0106,0.0014,0.003,0.0043,0,0,0,0,0,0,0.1009,0.0844,0.0791,0.0747,0.0662,0.052,0.0509,0.0441,0.0365,0.0357,0.0231,0.0202,0.0157,0.0091,0.0084,0.002,-0.0035,-0.0036,0.0064,0.0078,0.009,0.0107,-0.0022,0,0,0,0,0,0.1036,0.098,0.0839,0.0813,0.0773,0.0649,0.0608,0.0535,0.0442,0.0405,0.0312,0.0225,0.0156,0.0113,0.0042,0.0009,-0.0023,0.0004,0.0016,0.0027,0.0028,0.0004,0.0014,-0.0093,-0.0093,-0.0093,0,0,0.1092,0.0994,0.0967,0.084,0.0766,0.071,0.062,0.0565,0.0523,0.0397,0.0336,0.0265,0.0159,0.0113,0.0088,0.0057,0.005,0.0031,0.0041,0.0035,0.0008,0.0019,0.0028,-0.0091,-0.0091,-0.0092,0,0,0.1164,0.1085,0.1055,0.0981,0.0869,0.0786,0.0779,0.0647,0.0595,0.0531,0.0435,0.0383,0.0267,0.0195,0.0144,0.0187,0.0118,0.0168,0.023,0.0208,0.0217,0.0224,0.0238,0.0245,0.0169,0.0169,0.0169,0,0.1247,0.116,0.1048,0.0998,0.0945,0.0827,0.0795,0.0729,0.0601,0.0566,0.0533,0.0384,0.0305,0.024,0.025,0.0212,0.02,0.0182,0.0225,0.023,0.0235,0.0248,0.0254,0.0176,0.0175,0.0174,0.0174,0,0.1267,0.1208,0.1196,0.1074,0.1019,0.0979,0.086,0.0818,0.075,0.0671,0.0607,0.0507,0.0413,0.0392,0.0326,0.0317,0.0301,0.0248,0.019,0.0254,0.0264,0.0268,0.0186,0.0183,0.0181,0.0179,0,0,0.1427,0.1241,0.1239,0.1181,0.1048,0.0999,0.0953,0.086,0.0827,0.0741,0.0699,0.0603,0.0552,0.0494,0.0417,0.0399,0.0438,0.0347,0.0342,0.0367,0.0422,0.0463,0.047,0.0391,0.0391,0.0392,0.043,0,0.1478,0.1389,0.1286,0.1232,0.1175,0.1061,0.1021,0.0935,0.0859,0.08,0.0716,0.0649,0.0588,0.0552,0.0528,0.0439,0.0447,0.0434,0.035,0.0349,0.038,0.0475,0.0518,0.056,0.0433,0.0434,0.0434,0,0.1527,0.1446,0.1387,0.1257,0.1229,0.1195,0.11,0.1045,0.0945,0.0891,0.0825,0.0743,0.0688,0.0637,0.0559,0.0552,0.0512,0.0463,0.0461,0.045,0.0396,0.0466,0.057,0.0577,0.0439,0.0439,0.0439,0,0.1649,0.1525,0.1472,0.1426,0.1274,0.1252,0.1188,0.1085,0.1036,0.0953,0.092,0.0833,0.0785,0.072,0.0616,0.0589,0.0549,0.049,0.0503,0.0506,0.05,0.0502,0.06,0.0475,0.0475,0.0474,0.0474,0,0.1717,0.1685,0.1525,0.1493,0.1453,0.1334,0.1298,0.1224,0.1133,0.1084,0.0981,0.0938,0.0803,0.0744,0.0662,0.061,0.0589,0.0544,0.0523,0.0553,0.0559,0.0525,0.0519,0.0476,0.0476,0.0475,0.0475,0,0.1847,0.1738,0.1673,0.1534,0.1498,0.1475,0.1355,0.1319,0.1237,0.1176,0.1155,0.1026,0.095,0.084,0.0732,0.0677,0.0637,0.0602,0.0671,0.0658,0.0677,0.0677,0.0756,0.076,0.0634,0.0636,0.0637,0,0.1897,0.187,0.1727,0.1686,0.1625,0.1561,0.1509,0.1391,0.1342,0.1224,0.1203,0.1119,0.1045,0.093,0.0827,0.0743,0.0705,0.0739,0.0692,0.0723,0.0705,0.0708,0.0704,0.075,0.0752,0.0754,0.0755,0,0.1999,0.1946,0.1875,0.1786,0.1727,0.1651,0.1569,0.1542,0.1406,0.1356,0.1277,0.122,0.1108,0.1026,0.0927,0.086,0.0785,0.0771,0.0769,0.08,0.084,0.0818,0.0701,0.0769,0.0768,0.0767,0.0766,0.0766,0.209,0.2059,0.1953,0.1878,0.1804,0.173,0.1689,0.1601,0.1533,0.1432,0.1367,0.1291,0.1189,0.1049,0.0986,0.0925,0.0893,0.0892,0.0891,0.0892,0.0903,0.085,0.0906,0.0906,0.0905,0.0905,0.0904,0,0.2185,0.2111,0.2043,0.1932,0.1872,0.1806,0.1712,0.1666,0.1601,0.1512,0.1441,0.135,0.1269,0.1159,0.107,0.1043,0.1006,0.1023,0.1024,0.101,0.0936,0.0946,0.1054,0.1054,0.1054,0.1054,0.1054,0.1054,0.2228,0.2173,0.2107,0.2014,0.1939,0.1864,0.1816,0.1747,0.1675,0.1578,0.151,0.1438,0.134,0.1243,0.1166,0.1136,0.1108,0.1136,0.1095,0.1029,0.1015,0.1002,0.1011,0.1131,0.1131,0.1174,0.1174,0.1175]}]]